Marrakech, Morocco

1:35 PM WET on January 17, 2018 (GMT +0000)
Marrakech

Weather History for GMMX - May, 2014

Change the Weather History Date:

Saturday, May 17, 2014

  Actual Average Record
Temperature  
Mean Temperature 72 °F -  
Max Temperature 88 °F 86 °F 107 °F (2012)
Min Temperature 57 °F 60 °F 52 °F (2013)
Cooling Degree Days 8    
Growing Degree Days 22 (Base 50)    
Moisture  
Dew Point 53 °F    
Average Humidity 58    
Maximum Humidity 97    
Minimum Humidity 16    
Precipitation  
Precipitation 0.00 in 0.02 in - ()
Sea Level Pressure  
Sea Level Pressure 29.84 in    
Wind  
Wind Speed 6 mph ()    
Max Wind Speed 14 mph    
Max Gust Speed 20 mph    
Visibility 5.8 miles    
Events      
Averages and records for this station are not official NWS values.
T = Trace of Precipitation, MM = Missing Value Source: Averaged Metar Reports

Daily Weather History Graph

Daily Weather History Graph

Search for Another Location

Airport or City:

Trip Planner

Search our weather history database for the weather conditions in past years. The results will help you decide how hot, cold, wet, or windy it might be!

Date:

Astronomy

May. 17, 2014 Rise Set
Actual Time 6:34 AM WEST 8:22 PM WEST
Civil Twilight 6:07 AM WEST 8:49 PM WEST
Nautical Twilight 5:35 AM WEST 9:22 PM WEST
Astronomical Twilight 5:01 AM WEST 9:56 PM WEST
Moon 11:13 PM WEST 9:02 AM WEST
Length of Visible Light 14h 42m
Length of Day
13h 48m
Waning Gibbous, 91% of the Moon is Illuminated
May 17
Waning Gibbous
May 21
Last Quarter
May 28
New
Jun 5
First Quarter
Jun 13
Full

Hourly Weather History & Observations

Time (WEST) Temp. Dew Point Humidity Pressure Visibility Wind Dir Wind Speed Gust Speed Precip Events Conditions
12:00 AM 68.0 °F 57.2 °F 68% 29.89 in - WNW 8.1 mph - N/A   Clear
12:30 AM 66.2 °F 59.0 °F 78% 29.86 in - West 8.1 mph - N/A   Clear
1:00 AM 64 °F 58 °F 76% 29.83 in 6 mi WSW 6.9 mph - -   Clear
1:00 AM 64.4 °F 59.0 °F 83% 29.86 in - WSW 6.9 mph - N/A   Clear
1:30 AM 64.4 °F 59.0 °F 83% 29.86 in - WSW 6.9 mph - N/A   Clear
2:00 AM 62.6 °F 59.0 °F 88% 29.86 in - WSW 5.8 mph - N/A   Clear
2:30 AM 62.6 °F 59.0 °F 88% 29.83 in - SW 9.2 mph - N/A   Clear
3:00 AM 60.8 °F 59.0 °F 94% 29.86 in - WSW 6.9 mph - N/A   Clear
3:30 AM 60.8 °F 57.2 °F 88% 29.86 in - WSW 6.9 mph - N/A   Clear
4:00 AM 60 °F 58 °F 90% 29.83 in 6 mi WSW 5.8 mph - -  
4:00 AM 60.8 °F 57.2 °F 88% 29.86 in - WSW 6.9 mph - N/A   Clear
4:30 AM 59.0 °F 57.2 °F 94% 29.86 in 5.6 mi WSW 4.6 mph - N/A   Unknown
5:00 AM 59.0 °F 57.2 °F 94% 29.86 in 5.0 mi WSW 5.8 mph - N/A   Unknown
5:30 AM 59.0 °F 57.2 °F 94% 29.86 in 5.6 mi West 4.6 mph - N/A   Unknown
6:00 AM 59.0 °F 57.2 °F 94% 29.86 in 5.0 mi SW 4.6 mph - N/A   Unknown
6:30 AM 59.0 °F 57.2 °F 94% 29.86 in 3.1 mi West 3.5 mph - N/A   Unknown
6:48 AM 58 °F 57 °F 97% 29.86 in 4 mi SW 4.6 mph - -   Clear
7:00 AM 59.0 °F 57.2 °F 94% 29.86 in 3.7 mi SW 4.6 mph - N/A   Unknown
7:30 AM 59.0 °F 57.2 °F 94% 29.89 in - SW 3.5 mph - N/A   Clear
8:00 AM 60.8 °F 59.0 °F 94% 29.89 in 6.2 mi WNW 3.5 mph - N/A   Scattered Clouds
8:30 AM 62.6 °F 59.0 °F 88% 29.89 in 5.0 mi West 4.6 mph - N/A   Scattered Clouds
9:00 AM 62.6 °F 59.0 °F 88% 29.89 in 6.2 mi West 3.5 mph - N/A   Partly Cloudy
9:30 AM 64.4 °F 59.0 °F 83% 29.89 in 6.2 mi Variable 2.3 mph - N/A   Partly Cloudy
10:00 AM 68 °F 57 °F 60% 29.84 in 6 mi WNW 3.5 mph - -   Scattered Clouds
10:00 AM 68.0 °F 57.2 °F 68% 29.89 in 6.2 mi NW 4.6 mph - N/A   Partly Cloudy
10:30 AM 69.8 °F 57.2 °F 64% 29.89 in 6.2 mi Variable 3.5 mph - N/A   Partly Cloudy
11:00 AM 71.6 °F 55.4 °F 57% 29.89 in 6.2 mi Variable 3.5 mph - N/A   Partly Cloudy
11:30 AM 73.4 °F 51.8 °F 47% 29.89 in 6.2 mi Variable 4.6 mph - N/A   Partly Cloudy
12:00 PM 75.2 °F 51.8 °F 44% 29.86 in 6.2 mi NE 4.6 mph - N/A   Partly Cloudy
1:00 PM 78 °F 49 °F 25% 29.78 in 6 mi NNE 6.9 mph - -   Scattered Clouds
1:00 PM 78.8 °F 48.2 °F 34% 29.86 in 6.2 mi NNE 5.8 mph - N/A   Partly Cloudy
1:30 PM 78.8 °F 48.2 °F 34% 29.83 in 6.2 mi Variable 5.8 mph - N/A   Partly Cloudy
2:00 PM 80.6 °F 46.4 °F 30% 29.83 in 6.2 mi North 8.1 mph 19.6 mph N/A   Partly Cloudy
2:30 PM 80.6 °F 44.6 °F 28% 29.83 in 6.2 mi NNW 6.9 mph - N/A   Partly Cloudy
3:00 PM 82.4 °F 44.6 °F 26% 29.80 in 6.2 mi West 9.2 mph - N/A   Partly Cloudy
3:30 PM 82.4 °F 44.6 °F 26% 29.80 in 6.2 mi Variable 3.5 mph - N/A   Partly Cloudy
4:00 PM 83 °F 44 °F 16% 29.71 in 6 mi NW 9.2 mph - -   Scattered Clouds
4:00 PM 82.4 °F 44.6 °F 26% 29.80 in 6.2 mi WNW 9.2 mph - N/A   Partly Cloudy
4:30 PM 82.4 °F 44.6 °F 26% 29.80 in 6.2 mi North 5.8 mph - N/A   Partly Cloudy
5:00 PM 84.2 °F 46.4 °F 27% 29.77 in 6.2 mi NNW 6.9 mph - N/A   Partly Cloudy
5:30 PM 82.4 °F 48.2 °F 30% 29.77 in 6.2 mi NW 6.9 mph - N/A   Partly Cloudy
6:00 PM 82.4 °F 48.2 °F 30% 29.77 in 6.2 mi North 9.2 mph - N/A   Partly Cloudy
6:30 PM 82.4 °F 46.4 °F 28% 29.77 in 6.2 mi NW 11.5 mph - N/A   Partly Cloudy
7:00 PM 82 °F 46 °F 18% 29.70 in 6 mi North 9.2 mph - -   Scattered Clouds
7:00 PM 82.4 °F 46.4 °F 28% 29.77 in 6.2 mi North 9.2 mph - N/A   Partly Cloudy
7:30 PM 80.6 °F 48.2 °F 32% 29.80 in - North 13.8 mph - N/A   Clear
8:00 PM 77.0 °F 48.2 °F 36% 29.80 in 6.2 mi North 13.8 mph - N/A   Partly Cloudy
8:30 PM 75.2 °F 48.2 °F 38% 29.80 in 6.2 mi North 11.5 mph - N/A   Partly Cloudy
9:00 PM 73.4 °F 48.2 °F 41% 29.80 in 6.2 mi North 11.5 mph - N/A   Partly Cloudy
9:30 PM 73.4 °F 48.2 °F 41% 29.83 in 6.2 mi North 9.2 mph - N/A   Partly Cloudy
10:00 PM 72 °F 48 °F 32% 29.78 in 6 mi North 8.1 mph - -   Scattered Clouds
10:00 PM 71.6 °F 48.2 °F 43% 29.83 in - North 8.1 mph - N/A   Clear
10:30 PM 71.6 °F 46.4 °F 41% 29.86 in - NE 10.4 mph - N/A   Clear
11:00 PM 69.8 °F 50.0 °F 49% 29.86 in - NNE 8.1 mph - N/A   Clear
11:30 PM 69.8 °F 51.8 °F 53% 29.86 in - NNE 6.9 mph - N/A   Clear